[[{"header":{"parameterUnit":"m.s-1","parameterCategory":1,"la1":30.2991,"la2":30.254,"lo1":-89.0895,"lo2":-89.0444,"dy":0.0017,"dx":0.0017,"nx":28,"ny":28,"refTime":"2024-07-13T09:00:00:Z","depth":0,"parameterNumber":2,"parameterNumberName":"U-component_of_WINDS"},"data":[0,0,0,0,0,0,0,0,0,0,0,0,0,0,0,0,0,0,0,0,0,0,0,0,0,0,0,0,0,0,0,0,0,0,0,0,0,0,0,0,0,0,0,0,0,0,0,0,0,0,0,0,0,0,0,0,0,0,1.3018,1.302,0,1.3115,1.3116,1.3118,1.3139,1.3138,1.3137,1.3137,1.324,1.3243,1.3247,0,0,0,0,0,0,0,0,0,0,0,0,0,1.2855,1.2858,1.3018,1.302,1.3021,1.3115,1.3116,1.3118,1.3139,1.3138,1.3137,1.3136,1.3239,1.3243,1.3247,0,0,0,0,0,0,0,0,0,0,0,0,0,1.2937,1.2859,1.3018,1.3043,1.3046,1.3115,1.3117,1.3118,1.3139,1.3138,1.3137,1.3136,1.3238,1.3243,1.3248,1.3301,0,0,1.3263,1.3266,0,0,0,0,0,0,0,0,1.2932,1.2943,1.3038,1.3041,1.3045,1.3114,1.3097,1.3179,1.3139,1.3104,1.3137,1.3136,1.3199,1.3207,1.3228,1.3305,1.331,1.3264,1.3267,1.3269,1.3271,0,0,0,0,0,0,0,1.2926,1.2939,1.3057,1.3039,1.3043,1.305,1.306,1.3113,1.3157,1.3107,1.3109,1.312,1.3201,1.3223,1.3231,1.3311,1.3264,1.3268,1.3271,1.3273,1.3437,1.3438,0,0,0,0,0,0,1.2916,1.2934,1.3054,1.306,1.2984,1.3054,1.3065,1.3093,1.3156,1.3164,1.312,1.312,1.3215,1.3225,1.3234,1.33,1.3269,1.3274,1.3277,1.3435,1.3437,1.3438,0,0,0,0,0,0,1.2912,1.2926,1.305,1.2997,1.3013,1.3058,1.3088,1.3095,1.3117,1.3166,1.3174,1.3135,1.3214,1.3227,1.3284,1.3304,1.3276,1.3281,1.3434,1.3436,1.3438,1.3431,0,0,0,0,0,0,1.2908,1.2925,1.2945,1.2998,1.3016,1.3096,1.309,1.3098,1.3126,1.3126,1.3182,1.319,1.3215,1.3276,1.3289,1.331,1.3285,1.3432,1.3435,1.3437,1.343,1.3433,1.3435,0,0,0,0,0,1.2902,1.294,1.2946,1.296,1.3041,1.3097,1.3108,1.3135,1.3127,1.3148,1.3179,1.3188,1.3299,1.3281,1.3296,1.332,1.3431,1.3434,1.3437,1.3429,1.3432,1.3435,0,0,0,0,0,0,1.289,1.2947,1.2954,1.3011,1.3049,1.3101,1.3128,1.3138,1.318,1.3179,1.3211,1.3223,1.3278,1.3305,1.3283,1.3374,1.3365,1.3371,1.3354,1.3358,1.336,1.3353,1.3289,0,0,0,0,0,1.2894,1.2933,1.2982,1.3027,1.3045,1.3083,1.3109,1.3125,1.3167,1.3183,1.3219,1.326,1.3304,1.3333,1.3376,1.3434,1.3447,1.3458,1.346,1.3462,1.3467,1.3499,1.3505,1.3448,1.3448,1.3447,0,0,1.2902,1.2939,1.2962,1.3025,1.3057,1.3098,1.3097,1.314,1.3171,1.3191,1.3245,1.3273,1.3321,1.3378,1.3405,1.3402,1.3486,1.3466,1.3467,1.3471,1.3503,1.3508,1.3513,1.3449,1.3449,1.3449,0,0,1.2939,1.297,1.301,1.3042,1.3089,1.3114,1.3124,1.3174,1.3193,1.3248,1.3263,1.3301,1.3377,1.341,1.3437,1.3485,1.3495,1.3499,1.3513,1.3544,1.3548,1.3552,1.3569,1.3575,1.3503,1.3503,1.3503,0,1.2943,1.3004,1.3031,1.3073,1.3101,1.3119,1.3161,1.319,1.325,1.3269,1.3265,1.3359,1.3393,1.3458,1.3469,1.3491,1.3503,1.3492,1.3545,1.355,1.3554,1.3571,1.3577,1.3503,1.3503,1.3503,1.3503,0,1.3008,1.305,1.3078,1.3133,1.3164,1.3206,1.3239,1.3268,1.3282,1.3308,1.3364,1.3405,1.3456,1.3473,1.3488,1.3541,1.3537,1.3539,1.353,1.3559,1.3575,1.3582,1.3503,1.3503,1.3503,1.3503,0,0,1.3039,1.3108,1.3118,1.3143,1.3196,1.323,1.3273,1.3322,1.3346,1.3387,1.3424,1.3487,1.3489,1.3519,1.3538,1.3566,1.3601,1.3564,1.3566,1.3569,1.3661,1.3659,1.3666,1.3608,1.3609,1.361,1.3657,0,1.3082,1.3157,1.3182,1.3246,1.3285,1.3303,1.3341,1.3378,1.3403,1.3442,1.347,1.3514,1.3513,1.3531,1.3559,1.359,1.362,1.3588,1.3644,1.3645,1.363,1.3674,1.3673,1.3714,1.3663,1.3664,1.3665,0,1.3141,1.3181,1.3248,1.3296,1.3313,1.3346,1.3393,1.3429,1.3473,1.3489,1.3522,1.3539,1.3586,1.3575,1.364,1.3618,1.3642,1.3661,1.3664,1.367,1.3656,1.3681,1.3728,1.3734,1.3675,1.3675,1.3674,0,1.3156,1.3227,1.3276,1.3297,1.3355,1.3377,1.3403,1.3445,1.3473,1.3514,1.3533,1.358,1.3605,1.3642,1.3671,1.3661,1.3734,1.3726,1.3749,1.3749,1.3764,1.3762,1.3815,1.378,1.378,1.378,1.378,0,1.32,1.324,1.3283,1.3314,1.336,1.3388,1.3433,1.346,1.3497,1.3533,1.3553,1.3587,1.3623,1.3663,1.3686,1.3737,1.3748,1.3763,1.3769,1.3761,1.3759,1.3778,1.3775,1.3782,1.3781,1.3781,1.3781,0,1.3225,1.3255,1.331,1.3359,1.3373,1.3404,1.3447,1.3478,1.3504,1.355,1.3562,1.3603,1.365,1.3683,1.3744,1.376,1.3814,1.382,1.3799,1.3802,1.3823,1.3821,1.3889,1.39,1.3858,1.3858,1.3859,0,1.325,1.3281,1.3334,1.3359,1.3384,1.3424,1.3453,1.3483,1.3511,1.3563,1.3587,1.3635,1.3675,1.375,1.3786,1.3833,1.3839,1.386,1.3847,1.3838,1.3839,1.3837,1.384,1.3862,1.3862,1.3863,1.3863,0,1.3293,1.3306,1.3345,1.339,1.3422,1.3459,1.3497,1.3516,1.3553,1.3585,1.3632,1.3663,1.3725,1.3772,1.3823,1.385,1.3863,1.3867,1.3875,1.3867,1.3853,1.3861,1.3804,1.3865,1.3865,1.3865,1.3865,1.3864,1.3318,1.3347,1.3388,1.3431,1.3462,1.3496,1.3527,1.3556,1.3596,1.3647,1.3663,1.3713,1.3756,1.3824,1.3852,1.3892,1.3891,1.3902,1.3905,1.3907,1.3907,1.3847,1.3901,1.3901,1.3901,1.3901,1.3901,0,1.3361,1.3388,1.3428,1.3478,1.3512,1.352,1.3562,1.359,1.3633,1.3671,1.371,1.3765,1.3811,1.3851,1.3899,1.3923,1.393,1.3935,1.3933,1.3939,1.3906,1.3894,1.3928,1.3928,1.3928,1.3928,1.3928,1.3928,1.3387,1.3435,1.3454,1.3518,1.3545,1.3593,1.3616,1.3648,1.3679,1.3738,1.3776,1.3801,1.3841,1.3892,1.3935,1.3945,1.3962,1.3965,1.3977,1.3945,1.3942,1.3939,1.3928,1.3969,1.3969,1.4008,1.4008,1.4008]},{"header":{"parameterUnit":"m.s-1","parameterCategory":1,"la1":30.2991,"la2":30.254,"lo1":-89.0895,"lo2":-89.0444,"dy":0.0017,"dx":0.0017,"nx":28,"ny":28,"refTime":"2024-07-13T09:00:00:Z","depth":0,"parameterNumber":3,"parameterNumberName":"V-component_of_WINDS"},"data":[0,0,0,0,0,0,0,0,0,0,0,0,0,0,0,0,0,0,0,0,0,0,0,0,0,0,0,0,0,0,0,0,0,0,0,0,0,0,0,0,0,0,0,0,0,0,0,0,0,0,0,0,0,0,0,0,0,0,4.1732,4.1731,0,4.1669,4.1669,4.1668,4.1611,4.1611,4.161,4.1609,4.1542,4.1541,4.154,0,0,0,0,0,0,0,0,0,0,0,0,0,4.1799,4.1798,4.1732,4.1731,4.173,4.1669,4.1669,4.1668,4.1611,4.1611,4.161,4.1609,4.1543,4.1541,4.154,0,0,0,0,0,0,0,0,0,0,0,0,0,4.1756,4.1798,4.1732,4.1695,4.1691,4.167,4.1669,4.1667,4.1612,4.1611,4.161,4.1609,4.1543,4.1542,4.154,4.1549,0,0,4.1535,4.1534,0,0,0,0,0,0,0,0,4.1759,4.1754,4.1701,4.1697,4.1693,4.1647,4.1668,4.1628,4.1612,4.1642,4.1609,4.1608,4.1578,4.1573,4.1564,4.1546,4.1543,4.1534,4.1533,4.1533,4.1532,0,0,0,0,0,0,0,4.1762,4.1756,4.1707,4.17,4.1695,4.168,4.1673,4.166,4.1616,4.1639,4.1635,4.1628,4.1575,4.1565,4.1562,4.1542,4.1534,4.1533,4.1532,4.1531,4.1527,4.1528,0,0,0,0,0,0,4.1771,4.1759,4.1709,4.1705,4.1724,4.168,4.1672,4.1663,4.1616,4.1608,4.1629,4.1626,4.1569,4.1564,4.1559,4.1565,4.1533,4.1531,4.153,4.1526,4.1527,4.1528,0,0,0,0,0,0,4.1773,4.1767,4.1711,4.1731,4.1723,4.168,4.167,4.1662,4.1652,4.1609,4.16,4.1627,4.1568,4.1561,4.1552,4.1562,4.153,4.1529,4.1525,4.1526,4.1528,4.1579,0,0,0,0,0,0,4.1775,4.1768,4.1772,4.1731,4.1722,4.1706,4.1671,4.1662,4.165,4.1645,4.1605,4.1597,4.1567,4.1555,4.155,4.1559,4.1527,4.1524,4.1525,4.1527,4.1576,4.1582,4.1587,0,0,0,0,0,4.1777,4.1788,4.1772,4.1767,4.1726,4.1707,4.1701,4.1667,4.1651,4.1653,4.1625,4.1598,4.1562,4.1554,4.1548,4.1557,4.1523,4.1525,4.1527,4.1573,4.1581,4.1587,0,0,0,0,0,0,4.183,4.1782,4.1764,4.1763,4.174,4.1698,4.17,4.1676,4.1656,4.1652,4.161,4.1601,4.1596,4.1576,4.1568,4.1563,4.1539,4.154,4.1576,4.1582,4.1588,4.1592,4.1526,0,0,0,0,0,4.1842,4.1832,4.179,4.1793,4.1782,4.1744,4.1734,4.171,4.1683,4.1673,4.1644,4.1619,4.1602,4.1591,4.1573,4.1573,4.1562,4.1576,4.1582,4.1586,4.1587,4.1584,4.1589,4.1535,4.1535,4.1535,0,0,4.1865,4.1838,4.1834,4.1803,4.1782,4.1771,4.1735,4.1726,4.1716,4.1671,4.166,4.1638,4.1607,4.1602,4.1598,4.1585,4.16,4.1589,4.1593,4.1591,4.1586,4.1592,4.1596,4.1536,4.1536,4.1536,0,0,4.1902,4.1882,4.188,4.1861,4.183,4.1804,4.1804,4.1766,4.175,4.1738,4.1704,4.1692,4.1663,4.1642,4.1628,4.1656,4.163,4.1652,4.1679,4.1676,4.168,4.1684,4.1692,4.1696,4.1653,4.1653,4.1653,0,4.1935,4.1918,4.1883,4.1875,4.1861,4.1821,4.1819,4.1801,4.1766,4.1757,4.1743,4.1705,4.1682,4.167,4.1677,4.1668,4.1665,4.1655,4.1683,4.1686,4.1689,4.1696,4.17,4.1656,4.1655,4.1655,4.1655,0,4.1958,4.1947,4.195,4.1918,4.1905,4.19,4.1863,4.1854,4.1831,4.1806,4.1794,4.1764,4.1739,4.1734,4.1712,4.1719,4.1712,4.1691,4.1666,4.1697,4.1703,4.1706,4.166,4.1659,4.1658,4.1657,0,0,4.2025,4.1974,4.1975,4.196,4.1923,4.1913,4.1906,4.1882,4.1874,4.1851,4.1842,4.1819,4.18,4.1783,4.1758,4.1756,4.1778,4.1735,4.1733,4.1742,4.1782,4.1797,4.1801,4.1761,4.1761,4.1762,4.1784,0,4.2054,4.204,4.2008,4.2003,4.1991,4.1953,4.1946,4.1922,4.1899,4.1885,4.1859,4.1842,4.1819,4.1808,4.1805,4.1776,4.1785,4.1774,4.1751,4.175,4.1758,4.1804,4.182,4.1842,4.1787,4.1787,4.1787,0,4.2086,4.2066,4.206,4.2023,4.2017,4.2012,4.1987,4.1974,4.1946,4.1929,4.1911,4.1883,4.1871,4.185,4.1832,4.1825,4.1814,4.1798,4.1798,4.1793,4.1769,4.1798,4.1849,4.1852,4.1791,4.1791,4.179,0,4.2132,4.2104,4.2097,4.2085,4.2042,4.2039,4.2021,4.1992,4.1979,4.1957,4.1948,4.1925,4.1911,4.1893,4.1859,4.1847,4.1845,4.182,4.1828,4.1829,4.1828,4.1829,4.1876,4.1824,4.1824,4.1824,4.1824,0,4.2167,4.2164,4.2117,4.2112,4.2107,4.2071,4.2067,4.2045,4.202,4.2009,4.1975,4.1965,4.1921,4.1906,4.1879,4.1868,4.1862,4.1847,4.1839,4.1849,4.1851,4.184,4.1836,4.1825,4.1825,4.1825,4.1825,0,4.2217,4.2186,4.2175,4.2136,4.2126,4.2124,4.209,4.2083,4.2059,4.2045,4.204,4.2,4.198,4.1945,4.1915,4.1897,4.189,4.1879,4.19,4.1895,4.1905,4.1904,4.1945,4.1948,4.1897,4.1897,4.1898,0,4.224,4.2237,4.2198,4.2189,4.2173,4.2159,4.2146,4.211,4.2098,4.2065,4.2062,4.204,4.202,4.1989,4.1957,4.1933,4.192,4.1936,4.1916,4.1925,4.1918,4.1918,4.1916,4.194,4.194,4.1941,4.1942,0,4.2283,4.2268,4.2252,4.223,4.2216,4.2196,4.2175,4.2169,4.2128,4.2116,4.2096,4.2081,4.205,4.2028,4.2,4.1979,4.1953,4.1948,4.1949,4.1957,4.1969,4.1961,4.1911,4.1947,4.1947,4.1946,4.1946,4.1946,4.2319,4.2314,4.2286,4.2269,4.225,4.2231,4.2222,4.2197,4.218,4.2153,4.2133,4.2114,4.2085,4.2044,4.2025,4.2009,4.1997,4.1998,4.1998,4.1998,4.2001,4.1974,4.2004,4.2004,4.2003,4.2003,4.2003,0,4.2359,4.2339,4.2324,4.2296,4.2282,4.2261,4.2236,4.2225,4.2209,4.2185,4.2167,4.2143,4.2121,4.2088,4.2063,4.2056,4.2043,4.205,4.205,4.2045,4.2014,4.2016,4.2061,4.2061,4.2061,4.2061,4.2061,4.2061,4.2378,4.2368,4.235,4.233,4.231,4.2293,4.228,4.2262,4.2242,4.2218,4.22,4.2179,4.2151,4.2123,4.2102,4.2092,4.2084,4.2095,4.2081,4.2053,4.2047,4.2042,4.2043,4.2094,4.2094,4.2113,4.2113,4.2113]}]]